Location: Riedlingen
(48.1569°N, 9.4757°E)
Time: 00:19:47
(UTC+02:00)

ELECTRON R/B - Visible Passes

Search period start: 22 May 2018 00:00
Search period end: 01 June 2018 00:00
Orbit: 285 x 480 km, 82.9° (Epoch: 20 May)

Date Brightness Start Highest point End Pass type
(mag) Time Alt. Az. Time Alt. Az. Time Alt. Az.
22 May 4.6 22:06:39 10° NNW 22:09:05 67° W 22:11:29 10° S visible
23 May 7.4 22:44:03 10° WNW 22:45:15 13° W 22:46:27 10° WSW visible
24 May 4.3 21:46:26 10° N 21:48:52 83° W 21:51:19 10° S visible
25 May 7.3 22:23:24 10° NW 22:24:55 15° W 22:26:26 10° SW visible
27 May 7.2 22:02:32 10° NW 22:04:17 18° W 22:06:04 10° SW visible
